Location: Cazarilh
(42.9578°N, 0.5819°E)
Time: 21:51:24
(UTC+00:00)

Cosmos 1741 Rocket - Pass Details

Date: 11 December 2019
Orbit: 762 x 782 km, 74.0° (Epoch: 18 January)

Event Time Altitude Azimuth Distance (km) Brightness Sun altitude
Exits shadow 05:39:31 14° 338° (NNW) 2,039 5.9 -17.4°
Maximum altitude 05:44:03 82° 252° (WSW) 775 3.9 -16.6°
Drops below altitude 10° 05:49:16 10° 165° (SSE) 2,293 6.9 -15.7°
Sets 05:51:37 0° 164° (SSE) 3,217 7.7 -15.3°
